CZ-3C DEB, 40177

Orbit data source: Space-Track

CZ-3C DEB, 40177 is space debris in HEO originally from a launch on Sun, 31 Oct 2010 UTC launched from the Xichang Space Center, China (XSC). Debris objects in space refer to the collection of defunct objects orbiting the Earth. Examples of debris include non-operational satellites, rocket bodies, and fragments generated from explosions, collisions, or faulty payload assembly.

Loading next visibility...
Identifier
40177, 2010-057AF
Orbit
HEO
Last TLE update
11 months ago
Origin
Manufacturer
CALT
Mission
Spacecraft
Bus & Motor
Unknown
Mass
Unknown
Launch date (UTC)
2010-10-31 (15 years ago)
Launch vehicle
Unknown
Launch site
Xichang Space Center, China (XSC)
Object type
Payload
Rocket body
Debris
Shape & HBR
Unknown
Radar Cross Section
Medium (>0.1 m² and <1 m²)

Expand to show TLE details & history

TLE from 11 months ago
0 CZ-3C DEB
1 40177U 10057AF  24222.22662896  .00001864  00000-0  20836-1 0  9994
2 40177  17.6309 314.2845 7214565 223.2477  49.5393  2.21111368 91436
Epoch: 2024-08-09T05:26Z
TLE epoch observation values (Epoch: 2024-08-09T05:26:20.742Z)
Latitude
0.00026°
Longitude
-85.45207°
Altitude
18,835.457 km
Speed
3.95 km/s
True Right ascension
20h 57m 21s
True Declination
0° 00' 01"
Sunlit
Object was in daylight at epoch
Visualization orbit readout
Latitude
-16.30301°
Longitude
51.59613°
Altitude
35,901.105 km
Speed
1.667 km/s
Apparent Right ascension
06h 24m 31s
Apparent Declination
-19° 53' 47"
Sunlit
Object is in daylight
Visualization observer readout
Local Sidereal Time
21:17:34
Azimuth
74.529° E
Elevation
-48.036°
Doppler factor
1
Orbital elements
Apogee altitude
36,473.852 km
Perigee altitude
555.609 km
Semi-major axis
24,892.868 km
Eccentricity
0.72146
Inclination
17.6309°
RAAN
314.2845°
Arg. of periapsis
223.2477°
True anomaly
Unknown
Mean anomaly
49.5393°
Eccentric anomaly
Unknown
Mean motion
0.55263 °/min
Orbital period
651.44 mins
BSTAR
0.020836
Loading maneuver chart data...
Loading SW <> Apogee altitude chart data...
Loading historical data...
Loading historical data...
Loading historical data...
Loading historical data...
Loading historical data...
Loading historical data...
Loading historical data...

CZ-3C DEB Visibility forecast

Observer location: undefined°, undefined°

Span
Click to sort rows by Start time (UTC) header in descending order
Start Az.
Max El. time (UTC)
Max El. Az.
Max El.
End time (UTC)
End Az.
394 mins2025-07-01 16:12:15.517Z230.716° WSW2025-07-01 17:41:15.517Z200.963° SSW22.517°2025-07-01 22:46:15.517Z225.978° WSW
26 mins2025-07-02 01:40:15.517Z217.723° SW2025-07-02 01:59:15.517Z194.219° SSW13.421°2025-07-02 02:06:15.517Z171.156° S
|